Zurück zum Katalog

STARLINK-5603

AktivKommunikationVLEO
NORAD 55762·PAYLOAD·🇺🇸 United States

Gestartet Mar 3, 2023 von Vandenberg Space Force Base

Loading…

Nächste Überflüge (nächste 24 Stunden)

TLE

AktuellSource: CelesTrak SupGP

Epoche: Sep 14, 2026, 21:52 UTC

1 55762C 23028X   26257.91159722  .00012594  00000+0  10555-2 0  2573
2 55762  70.0000 107.4701 0002695 276.2062  98.8135 14.98320200    15

Verfolge STARLINK-5603 in Echtzeit mit AllMySat

Download on the App Store